Overview Statistics Trail Chart Weather Telemetry Raw packets
 

This is the latest recevied weather packets stored in our database for station/object SV9TNF-52. If no packets are shown the sender has not sent any weather packets the latest 10 day(s).

<< 29 30 31 32 33 34 35 >>
Time Temp. Humidity Pressure Rain* Wind** Luminosity Snow
1788458360 25° C 69% 1017.6 hPa 0 mm 1.34 m/s, 198° - -
1788458060 25.56° C 69% 1017.6 hPa 0 mm 0 m/s - -
1788457760 25.56° C 69% 1017.6 hPa 0 mm 1.79 m/s, 260° - -
1788457460 25.56° C 68% 1017.6 hPa 0 mm 1.79 m/s, 260° - -
1788457160 25.56° C 68% 1017.6 hPa 0 mm 1.79 m/s, 270° - -
1788456860 25.56° C 68% 1017.6 hPa 0 mm 0.45 m/s, 245° - -
1788456560 26.11° C 68% 1017.6 hPa 0 mm 3.58 m/s, 251° - -
1788456260 26.11° C 68% 1017.3 hPa 0 mm 4.02 m/s, 253° - -
1788455959 25.56° C 68% 1017.3 hPa 0 mm 4.02 m/s, 255° - -
1788455659 26.11° C 68% 1017.3 hPa 0 mm 0 m/s - -
1788455359 26.11° C 69% 1017.3 hPa 0 mm 2.68 m/s, 241° - -
1788455059 26.11° C 69% 1017.3 hPa 0 mm 1.79 m/s, 245° - -
1788454759 26.11° C 69% 1017.3 hPa 0 mm 1.34 m/s, 251° - -
1788454459 26.11° C 69% 1017.3 hPa 0 mm 3.13 m/s, 252° - -
1788454159 26.11° C 68% 1017.3 hPa 0 mm 3.13 m/s, 261° - -
1788453859 26.11° C 68% 1017.3 hPa 0 mm 4.47 m/s, 270° - -
1788453559 26.11° C 68% 1017.3 hPa 0 mm 1.34 m/s, 257° - -
1788453259 26.11° C 67% 1017.3 hPa 0 mm 3.58 m/s, 256° - -
1788452958 26.67° C 68% 1017.3 hPa 0 mm 1.79 m/s, 344° - -
1788452659 26.67° C 68% 1017.3 hPa 0 mm 3.13 m/s, 325° - -
1788452358 26.67° C 67% 1017.3 hPa 0 mm 3.13 m/s, 273° - -
1788452058 26.67° C 67% 1017.3 hPa 0 mm 4.92 m/s, 270° - -
1788451758 26.67° C 67% 1017.3 hPa 0 mm 5.36 m/s, 274° - -
1788451458 26.67° C 67% 1017.3 hPa 0 mm 4.47 m/s, 247° - -
1788451158 27.22° C 68% 1017.3 hPa 0 mm 0.89 m/s, 270° - -

* Rain latest hour (hover to see other rain measurements)
** Current wind speed in m/s (hover to see current wind gust speed)